| time (UTC) | temp C | wind direction | speed KPH | gust KPH | rain 1hr cm | rain 24hr cm | rain mn cm | humidity % | barometer mb |
| 20260507040919 | 7 | 22 | 0.0 | 3.2 | 0.00 | 0.00 | 0.00 | 85 | 1010.1 |
| 20260507040415 | 7 | 16 | 0.0 | 1.6 | 0.00 | 0.00 | 0.00 | 84 | 1010.1 |
| 20260507035911 | 7 | 2 | 0.0 | 1.6 | 0.00 | 1.12 | 1.12 | 84 | 1010.1 |
| 20260507035407 | 7 | 19 | 3.2 | 4.8 | 0.00 | 1.12 | 1.12 | 84 | 1010.0 |
| 20260507034904 | 7 | 4 | 0.0 | 6.4 | 0.00 | 1.12 | 1.12 | 84 | 1010.0 |
| 20260507034401 | 7 | 34 | 1.6 | 3.2 | 0.00 | 1.12 | 1.12 | 84 | 1010.3 |
| 20260507033859 | 7 | 11 | 1.6 | 3.2 | 0.00 | 1.12 | 1.12 | 85 | 1010.2 |
| 20260507033357 | 7 | 19 | 1.6 | 3.2 | 0.00 | 1.12 | 1.12 | 85 | 1010.2 |
| 20260507032853 | 7 | 1 | 0.0 | 1.6 | 0.00 | 1.12 | 1.12 | 85 | 1010.3 |
| 20260507032350 | 7 | 140 | 1.6 | 4.8 | 0.00 | 1.12 | 1.12 | 85 | 1010.3 |
| 20260507031846 | 7 | 25 | 0.0 | 0.0 | 0.00 | 1.12 | 1.12 | 84 | 1010.3 |
| 20260507031343 | 7 | 26 | 0.0 | 0.0 | 0.00 | 1.12 | 1.12 | 82 | 1010.3 |
| 20260507030840 | 7 | 26 | 0.0 | 0.0 | 0.00 | 1.12 | 1.12 | 82 | 1010.4 |
| 20260507030337 | 7 | 26 | 0.0 | 0.0 | 0.00 | 1.12 | 1.12 | 82 | 1010.4 |
| 20260507025834 | 7 | 26 | 0.0 | 0.0 | 0.00 | 1.12 | 1.12 | 82 | 1010.4 |
| 20260507025332 | 7 | 26 | 0.0 | 0.0 | 0.00 | 1.12 | 1.12 | 82 | 1010.4 |
| 20260507024829 | 7 | 26 | 0.0 | 0.0 | 0.00 | 1.12 | 1.12 | 82 | 1010.4 |
| 20260507024326 | 7 | 26 | 0.0 | 0.0 | 0.00 | 1.12 | 1.12 | 82 | 1010.4 |
| 20260507023822 | 7 | 5 | 0.0 | 0.0 | 0.00 | 1.12 | 1.12 | 81 | 1010.4 |
| 20260507023319 | 7 | 9 | 0.0 | 0.0 | 0.00 | 1.12 | 1.12 | 81 | 1010.5 |
| 20260507022816 | 7 | 4 | 0.0 | 0.0 | 0.00 | 1.12 | 1.12 | 80 | 1010.4 |
| 20260507022312 | 7 | 3 | 0.0 | 0.0 | 0.00 | 1.12 | 1.12 | 80 | 1010.6 |
| 20260507021809 | 7 | 4 | 0.0 | 0.0 | 0.00 | 1.12 | 1.12 | 80 | 1010.5 |
| 20260507021304 | 7 | 356 | 0.0 | 0.0 | 0.00 | 1.12 | 1.12 | 80 | 1010.6 |
| 20260507020802 | 7 | 6 | 0.0 | 0.0 | 0.00 | 1.12 | 1.12 | 79 | 1010.8 |
| 20260507020259 | 7 | 18 | 1.6 | 3.2 | 0.00 | 1.12 | 1.12 | 78 | 1010.8 |
| 20260507015756 | 7 | 18 | 1.6 | 3.2 | 0.00 | 1.12 | 1.12 | 78 | 1010.9 |
| 20260507015253 | 7 | 6 | 0.0 | 0.0 | 0.00 | 1.12 | 1.12 | 77 | 1010.8 |
| 20260507014750 | 7 | 6 | 0.0 | 0.0 | 0.00 | 1.12 | 1.12 | 77 | 1010.9 |
| 20260507014246 | 7 | 45 | 1.6 | 1.6 | 0.00 | 1.12 | 1.12 | 77 | 1010.6 |
| 20260507013743 | 7 | 45 | 1.6 | 1.6 | 0.00 | 1.12 | 1.12 | 77 | 1011.1 |
| 20260507013241 | 7 | 336 | 0.0 | 1.6 | 0.00 | 1.12 | 1.12 | 77 | 1011.0 |
| 20260507012738 | 7 | 336 | 0.0 | 1.6 | 0.00 | 1.12 | 1.12 | 77 | 1011.0 |
| 20260507012233 | 7 | 358 | 0.0 | 1.6 | 0.00 | 1.12 | 1.12 | 77 | 1011.1 |
| 20260507011731 | 7 | 358 | 0.0 | 1.6 | 0.00 | 1.12 | 1.12 | 77 | 1011.1 |
| 20260507011228 | 7 | 9 | 0.0 | 0.0 | 0.00 | 1.12 | 1.12 | 77 | 1011.0 |
| 20260507010727 | 7 | 17 | 0.0 | 1.6 | 0.00 | 1.12 | 1.12 | 77 | 1010.8 |
| 20260507010223 | 7 | 9 | 0.0 | 0.0 | 0.00 | 1.12 | 1.12 | 77 | 1010.8 |
| 20260507005721 | 8 | 5 | 0.0 | 3.2 | 0.00 | 1.12 | 1.12 | 77 | 1010.9 |
| 20260507005217 | 8 | 26 | 1.6 | 1.6 | 0.00 | 1.12 | 1.12 | 77 | 1010.8 |
| 20260507004714 | 8 | 28 | 0.0 | 1.6 | 0.00 | 1.12 | 1.12 | 77 | 1010.8 |
| 20260507004212 | 8 | 4 | 1.6 | 3.2 | 0.00 | 1.12 | 1.12 | 77 | 1010.5 |
| 20260507003708 | 8 | 0 | 0.0 | 0.0 | 0.00 | 1.12 | 1.12 | 78 | 1010.6 |
| 20260507003203 | 8 | 23 | 0.0 | 1.6 | 0.00 | 1.12 | 1.12 | 78 | 1010.4 |
| 20260507002659 | 8 | 11 | 0.0 | 3.2 | 0.00 | 1.12 | 1.12 | 78 | 1010.3 |
| 20260507002155 | 8 | 5 | 1.6 | 1.6 | 0.00 | 1.12 | 1.12 | 78 | 1010.2 |
| 20260507001652 | 8 | 15 | 1.6 | 3.2 | 0.00 | 1.12 | 1.12 | 78 | 1010.2 |
| 20260507001150 | 8 | 25 | 0.0 | 1.6 | 0.00 | 1.12 | 1.12 | 77 | 1010.1 |
| 20260507000646 | 8 | 40 | 1.6 | 3.2 | 0.00 | 1.12 | 1.12 | 77 | 1010.0 |
| 20260507000141 | 8 | 40 | 1.6 | 3.2 | 0.00 | 1.12 | 1.12 | 77 | 1010.2 |
| 20260506235639 | 8 | 40 | 1.6 | 3.2 | 0.00 | 1.12 | 1.12 | 77 | 1010.0 |
| 20260506235139 | 8 | 23 | 1.6 | 3.2 | 0.00 | 1.12 | 1.12 | 77 | 1010.1 |
| 20260506234636 | 8 | 23 | 1.6 | 3.2 | 0.00 | 1.12 | 1.12 | 77 | 1010.1 |
| 20260506234133 | 8 | 4 | 0.0 | 1.6 | 0.00 | 1.12 | 1.12 | 77 | 1010.1 |
| 20260506233630 | 8 | 12 | 0.0 | 0.0 | 0.00 | 1.12 | 1.12 | 76 | 1010.0 |
| 20260506233127 | 8 | 25 | 3.2 | 3.2 | 0.00 | 1.12 | 1.12 | 76 | 1010.0 |
| 20260506232623 | 8 | 10 | 0.0 | 0.0 | 0.00 | 1.12 | 1.12 | 75 | 1010.1 |
| 20260506232119 | 8 | 12 | 0.0 | 0.0 | 0.00 | 1.12 | 1.12 | 74 | 1010.1 |
| 20260506231616 | 8 | 195 | 1.6 | 1.6 | 0.00 | 1.12 | 1.12 | 73 | 1010.1 |
| 20260506231115 | 8 | 195 | 1.6 | 1.6 | 0.00 | 1.12 | 1.12 | 73 | 1010.0 |
| 20260506230611 | 8 | 13 | 1.6 | 1.6 | 0.00 | 1.12 | 1.12 | 72 | 1009.9 |
| 20260506230108 | 8 | 14 | 0.0 | 0.0 | 0.00 | 1.12 | 1.12 | 70 | 1010.0 |
| 20260506225604 | 8 | 14 | 0.0 | 0.0 | 0.00 | 1.12 | 1.12 | 70 | 1009.9 |
| 20260506225101 | 8 | 14 | 0.0 | 0.0 | 0.00 | 1.12 | 1.12 | 70 | 1009.7 |
| 20260506224558 | 8 | 14 | 0.0 | 0.0 | 0.00 | 1.12 | 1.12 | 70 | 1010.1 |
| 20260506224055 | 9 | 3 | 1.6 | 1.6 | 0.00 | 1.12 | 1.12 | 70 | 1009.8 |
| 20260506223550 | 9 | 3 | 1.6 | 1.6 | 0.00 | 1.12 | 1.12 | 70 | 1009.9 |
| 20260506223047 | 9 | 4 | 0.0 | 1.6 | 0.00 | 1.12 | 1.12 | 70 | 1010.1 |
| 20260506222544 | 9 | 17 | 0.0 | 0.0 | 0.00 | 1.12 | 1.12 | 70 | 1010.1 |
| 20260506222040 | 9 | 11 | 1.6 | 1.6 | 0.00 | 1.12 | 1.12 | 70 | 1010.1 |
| 20260506221538 | 9 | 13 | 1.6 | 3.2 | 0.00 | 1.12 | 1.12 | 69 | 1010.1 |
| 20260506221036 | 9 | 55 | 3.2 | 3.2 | 0.00 | 1.12 | 1.12 | 67 | 1010.2 |
| 20260506220531 | 9 | 25 | 0.0 | 1.6 | 0.00 | 1.12 | 1.12 | 70 | 1010.2 |
| 20260506220027 | 9 | 25 | 0.0 | 1.6 | 0.00 | 1.12 | 1.12 | 70 | 1010.3 |
| 20260506215524 | 9 | 10 | 1.6 | 3.2 | 0.00 | 1.12 | 1.12 | 69 | 1009.9 |
| 20260506215020 | 9 | 356 | 0.0 | 0.0 | 0.00 | 1.12 | 1.12 | 71 | 1010.1 |
| 20260506214517 | 9 | 20 | 3.2 | 4.8 | 0.00 | 1.12 | 1.12 | 70 | 1010.1 |
| 20260506214014 | 9 | 29 | 3.2 | 3.2 | 0.00 | 1.12 | 1.12 | 70 | 1010.2 |
| 20260506213513 | 9 | 5 | 6.4 | 6.4 | 0.00 | 1.12 | 1.12 | 70 | 1010.1 |
| 20260506213009 | 8 | 6 | 0.0 | 0.0 | 0.00 | 1.12 | 1.12 | 72 | 1009.9 |
| 20260506212505 | 8 | 6 | 0.0 | 1.6 | 0.00 | 1.12 | 1.12 | 73 | 1010.1 |
| 20260506212000 | 8 | 6 | 0.0 | 0.0 | 0.00 | 1.12 | 1.12 | 73 | 1010.2 |
| 20260506211456 | 8 | 12 | 1.6 | 3.2 | 0.00 | 1.12 | 1.12 | 71 | 1010.1 |
| 20260506210954 | 8 | 7 | 0.0 | 1.6 | 0.00 | 1.12 | 1.12 | 73 | 1010.0 |
| 20260506210450 | 8 | 4 | 0.0 | 1.6 | 0.00 | 1.12 | 1.12 | 73 | 1010.3 |
| 20260506205947 | 8 | 0 | 0.0 | 0.0 | 0.00 | 1.12 | 1.12 | 74 | 1010.2 |
| 20260506205444 | 8 | 8 | 0.0 | 0.0 | 0.00 | 1.12 | 1.12 | 74 | 1010.4 |
| 20260506204940 | 8 | 36 | 0.0 | 1.6 | 0.00 | 1.12 | 1.12 | 74 | 1010.3 |
| 20260506204438 | 8 | 63 | 0.0 | 3.2 | 0.00 | 1.12 | 1.12 | 74 | 1010.4 |
| 20260506203935 | 8 | 17 | 0.0 | 1.6 | 0.00 | 1.12 | 1.12 | 75 | 1010.1 |
| 20260506203432 | 8 | 9 | 0.0 | 1.6 | 0.00 | 1.12 | 1.12 | 75 | 1010.1 |
| 20260506202929 | 8 | 6 | 0.0 | 3.2 | 0.00 | 1.12 | 1.12 | 75 | 1010.2 |
| 20260506202426 | 8 | 357 | 0.0 | 1.6 | 0.00 | 1.12 | 1.12 | 76 | 1010.3 |
| 20260506201922 | 8 | 19 | 1.6 | 3.2 | 0.00 | 1.12 | 1.12 | 75 | 1010.5 |
| 20260506201420 | 8 | 354 | 1.6 | 4.8 | 0.00 | 1.12 | 1.12 | 75 | 1010.3 |
| 20260506200916 | 8 | 5 | 0.0 | 3.2 | 0.00 | 1.12 | 1.12 | 76 | 1010.4 |
| 20260506200412 | 8 | 359 | 1.6 | 4.8 | 0.00 | 1.12 | 1.12 | 75 | 1010.5 |
| 20260506195909 | 8 | 354 | 0.0 | 1.6 | 0.00 | 1.12 | 1.12 | 74 | 1010.3 |
| 20260506195407 | 8 | 2 | 0.0 | 1.6 | 0.00 | 1.12 | 1.12 | 75 | 1010.3 |
| 20260506194903 | 8 | 5 | 1.6 | 1.6 | 0.00 | 1.12 | 1.12 | 75 | 1010.4 |
| 20260506194400 | 8 | 12 | 0.0 | 1.6 | 0.00 | 1.12 | 1.12 | 75 | 1010.4 |
| 20260506193857 | 8 | 355 | 0.0 | 1.6 | 0.00 | 1.12 | 1.12 | 77 | 1010.6 |
| 20260506193354 | 8 | 3 | 0.0 | 3.2 | 0.00 | 1.12 | 1.12 | 77 | 1010.8 |
| 20260506192850 | 8 | 25 | 1.6 | 1.6 | 0.00 | 1.12 | 1.12 | 76 | 1010.9 |
| 20260506192347 | 8 | 2 | 0.0 | 1.6 | 0.00 | 1.12 | 1.12 | 77 | 1010.8 |
| 20260506191844 | 7 | 3 | 1.6 | 1.6 | 0.00 | 1.12 | 1.12 | 77 | 1010.9 |
| 20260506191340 | 7 | 18 | 1.6 | 1.6 | 0.00 | 1.12 | 1.12 | 78 | 1010.8 |
| 20260506190838 | 8 | 27 | 1.6 | 1.6 | 0.00 | 1.12 | 1.12 | 78 | 1010.8 |
| 20260506190334 | 8 | 30 | 0.0 | 1.6 | 0.00 | 1.12 | 1.12 | 79 | 1010.6 |
| 20260506185831 | 8 | 72 | 1.6 | 3.2 | 0.00 | 1.12 | 1.12 | 78 | 1010.8 |
| 20260506185328 | 8 | 11 | 0.0 | 1.6 | 0.00 | 1.12 | 1.12 | 79 | 1010.6 |
| 20260506184825 | 8 | 6 | 0.0 | 0.0 | 0.00 | 1.12 | 1.12 | 80 | 1010.8 |
| 20260506184322 | 7 | 4 | 0.0 | 3.2 | 0.00 | 1.12 | 1.12 | 80 | 1010.6 |
| 20260506183820 | 8 | 357 | 0.0 | 0.0 | 0.00 | 1.12 | 1.12 | 79 | 1010.3 |
| 20260506183314 | 7 | 3 | 0.0 | 3.2 | 0.00 | 1.12 | 1.12 | 80 | 1010.4 |
| 20260506182812 | 8 | 14 | 0.0 | 1.6 | 0.00 | 1.12 | 1.12 | 80 | 1010.3 |
| 20260506182309 | 8 | 9 | 0.0 | 1.6 | 0.00 | 1.12 | 1.12 | 78 | 1010.4 |
| 20260506181807 | 8 | 8 | 0.0 | 0.0 | 0.00 | 1.12 | 1.12 | 79 | 1010.4 |
| 20260506181304 | 7 | 0 | 0.0 | 1.6 | 0.00 | 1.12 | 1.12 | 80 | 1010.6 |
| 20260506180801 | 7 | 2 | 1.6 | 3.2 | 0.00 | 1.12 | 1.12 | 80 | 1010.6 |
| 20260506180257 | 7 | 5 | 0.0 | 1.6 | 0.00 | 1.12 | 1.12 | 81 | 1010.6 |
| 20260506175753 | 7 | 338 | 0.0 | 1.6 | 0.00 | 1.12 | 1.12 | 80 | 1010.8 |
| 20260506175250 | 7 | 3 | 0.0 | 3.2 | 0.00 | 1.12 | 1.12 | 81 | 1010.9 |
| 20260506174748 | 7 | 351 | 1.6 | 4.8 | 0.00 | 1.12 | 1.12 | 80 | 1010.8 |
| 20260506174245 | 7 | 0 | 0.0 | 1.6 | 0.00 | 1.12 | 1.12 | 80 | 1010.9 |
| 20260506173743 | 7 | 0 | 0.0 | 1.6 | 0.00 | 1.12 | 1.12 | 82 | 1011.2 |
| 20260506173239 | 7 | 3 | 0.0 | 0.0 | 0.00 | 1.12 | 1.12 | 83 | 1011.1 |
| 20260506172736 | 7 | 6 | 1.6 | 1.6 | 0.00 | 1.12 | 1.12 | 82 | 1011.2 |
| 20260506172233 | 7 | 18 | 1.6 | 1.6 | 0.00 | 1.12 | 1.12 | 82 | 1011.5 |
| 20260506171730 | 7 | 359 | 0.0 | 1.6 | 0.00 | 1.12 | 1.12 | 83 | 1011.3 |
| 20260506171227 | 6 | 359 | 0.0 | 0.0 | 0.00 | 1.12 | 1.12 | 82 | 1011.4 |
| 20260506170725 | 6 | 2 | 0.0 | 1.6 | 0.00 | 1.12 | 1.12 | 83 | 1011.5 |
| 20260506170221 | 6 | 13 | 0.0 | 0.0 | 0.00 | 1.12 | 1.12 | 82 | 1011.3 |
| 20260506165720 | 6 | 0 | 0.0 | 1.6 | 0.00 | 1.12 | 1.12 | 83 | 1011.9 |
| 20260506165216 | 6 | 11 | 0.0 | 1.6 | 0.00 | 1.12 | 1.12 | 84 | 1011.7 |
| 20260506164714 | 6 | 81 | 1.6 | 1.6 | 0.00 | 1.12 | 1.12 | 85 | 1011.8 |
| 20260506164211 | 6 | 9 | 0.0 | 1.6 | 0.00 | 1.12 | 1.12 | 85 | 1011.8 |
| 20260506163707 | 6 | 356 | 0.0 | 1.6 | 0.00 | 1.12 | 1.12 | 86 | 1011.7 |
| 20260506163202 | 6 | 27 | 0.0 | 1.6 | 0.00 | 1.12 | 1.12 | 86 | 1011.7 |
| 20260506162658 | 6 | 347 | 0.0 | 1.6 | 0.00 | 1.12 | 1.12 | 87 | 1011.6 |
| 20260506162156 | 6 | 5 | 0.0 | 1.6 | 0.18 | 1.12 | 1.12 | 87 | 1011.9 |
| 20260506161653 | 6 | 2 | 0.0 | 1.6 | 0.18 | 1.12 | 1.12 | 89 | 1011.9 |
| 20260506161150 | 6 | 16 | 0.0 | 3.2 | 0.13 | 1.09 | 1.09 | 88 | 1011.8 |
| 20260506160648 | 6 | 8 | 0.0 | 0.0 | 0.13 | 1.09 | 1.09 | 88 | 1012.0 |
| 20260506160144 | 6 | 354 | 0.0 | 1.6 | 0.00 | 1.07 | 1.07 | 88 | 1012.1 |
| 20260506155643 | 6 | 10 | 0.0 | 1.6 | 0.00 | 1.07 | 1.07 | 89 | 1012.0 |
| 20260506155140 | 6 | 8 | 0.0 | 1.6 | 0.13 | 1.04 | 1.04 | 89 | 1012.2 |
| 20260506153242 | 6 | 357 | 1.6 | 1.6 | 0.30 | 1.04 | 1.04 | 89 | 1012.3 |
| 20260506152738 | 6 | 2 | 1.6 | 3.2 | 0.30 | 1.02 | 1.02 | 87 | 1012.2 |
| 20260506152236 | 6 | 6 | 0.0 | 0.0 | 0.13 | 0.99 | 0.99 | 88 | 1012.5 |
| 20260506151735 | 6 | 7 | 0.0 | 0.0 | 0.18 | 0.97 | 0.97 | 88 | 1012.3 |
| 20260506151231 | 6 | 7 | 0.0 | 1.6 | 0.18 | 0.97 | 0.97 | 87 | 1012.5 |
| 20260506150727 | 6 | 11 | 1.6 | 3.2 | 0.18 | 0.94 | 0.94 | 87 | 1012.1 |
| 20260506150225 | 6 | 9 | 0.0 | 0.0 | 0.18 | 0.94 | 0.94 | 87 | 1012.3 |
| 20260506145722 | 6 | 13 | 0.0 | 0.0 | 0.00 | 0.91 | 0.91 | 88 | 1012.3 |
| 20260506145218 | 6 | 17 | 0.0 | 1.6 | 0.00 | 0.91 | 0.91 | 88 | 1012.4 |
| 20260506144716 | 6 | 7 | 0.0 | 1.6 | 0.13 | 0.91 | 0.91 | 90 | 1012.2 |
| 20260506144212 | 6 | 4 | 0.0 | 1.6 | 0.13 | 0.91 | 0.91 | 89 | 1012.2 |
| 20260506143710 | 6 | 9 | 0.0 | 1.6 | 0.18 | 0.89 | 0.89 | 87 | 1012.3 |
| 20260506143208 | 6 | 2 | 0.0 | 1.6 | 0.18 | 0.89 | 0.89 | 87 | 1012.0 |
| 20260506142706 | 6 | 12 | 0.0 | 1.6 | 0.30 | 0.86 | 0.86 | 88 | 1012.1 |
| 20260506142203 | 6 | 9 | 0.0 | 1.6 | 0.30 | 0.86 | 0.86 | 89 | 1012.1 |
| 20260506141701 | 6 | 3 | 0.0 | 1.6 | 0.13 | 0.81 | 0.81 | 89 | 1012.3 |
| 20260506141159 | 6 | 6 | 0.0 | 1.6 | 0.30 | 0.81 | 0.81 | 88 | 1012.3 |
| 20260506140656 | 6 | 2 | 0.0 | 1.6 | 0.18 | 0.79 | 0.79 | 89 | 1012.3 |
| 20260506140153 | 6 | 13 | 0.0 | 1.6 | 0.13 | 0.76 | 0.76 | 89 | 1012.2 |
| 20260506135650 | 6 | 37 | 1.6 | 1.6 | 0.00 | 0.74 | 0.74 | 88 | 1012.2 |
| 20260506135146 | 6 | 9 | 0.0 | 1.6 | 0.18 | 0.74 | 0.74 | 88 | 1012.3 |
| 20260506134643 | 6 | 351 | 1.6 | 1.6 | 0.18 | 0.74 | 0.74 | 88 | 1012.2 |
| 20260506134139 | 6 | 14 | 1.6 | 1.6 | 0.13 | 0.71 | 0.71 | 88 | 1012.2 |
| 20260506133637 | 6 | 10 | 0.0 | 1.6 | 0.13 | 0.71 | 0.71 | 87 | 1012.0 |
| 20260506133133 | 6 | 10 | 1.6 | 1.6 | 0.18 | 0.69 | 0.69 | 88 | 1012.1 |
| 20260506132631 | 6 | 14 | 0.0 | 0.0 | 0.30 | 0.69 | 0.69 | 87 | 1012.0 |
| 20260506132127 | 6 | 65 | 1.6 | 3.2 | 0.30 | 0.66 | 0.66 | 87 | 1012.0 |
| 20260506131625 | 6 | 354 | 1.6 | 3.2 | 0.36 | 0.64 | 0.64 | 87 | 1012.1 |
| 20260506131121 | 6 | 27 | 1.6 | 3.2 | 0.18 | 0.61 | 0.61 | 89 | 1012.0 |
| 20260506130618 | 6 | 17 | 3.2 | 3.2 | 0.13 | 0.58 | 0.58 | 88 | 1012.0 |
| 20260506130116 | 6 | 19 | 0.0 | 4.8 | 0.13 | 0.58 | 0.58 | 87 | 1011.8 |
| 20260506125614 | 6 | 24 | 0.0 | 3.2 | 0.00 | 0.56 | 0.56 | 87 | 1012.0 |
| 20260506125111 | 6 | 19 | 0.0 | 0.0 | 0.18 | 0.56 | 0.56 | 86 | 1012.1 |
| 20260506124609 | 6 | 17 | 0.0 | 0.0 | 0.18 | 0.56 | 0.56 | 87 | 1012.0 |
| 20260506124107 | 6 | 18 | 3.2 | 3.2 | 0.13 | 0.53 | 0.53 | 86 | 1012.0 |
| 20260506123604 | 6 | 13 | 0.0 | 0.0 | 0.30 | 0.53 | 0.53 | 88 | 1012.0 |
| 20260506123102 | 6 | 10 | 0.0 | 1.6 | 0.30 | 0.51 | 0.51 | 87 | 1011.8 |
| 20260506122558 | 6 | 9 | 0.0 | 1.6 | 0.89 | 0.48 | 0.48 | 87 | 1011.8 |
| 20260506122057 | 6 | 27 | 1.6 | 1.6 | 0.79 | 0.46 | 0.46 | 87 | 1012.0 |
| 20260506121554 | 6 | 17 | 0.0 | 1.6 | 0.00 | 0.33 | 0.33 | 84 | 1012.1 |
| 20260506121050 | 6 | 17 | 0.0 | 1.6 | 0.13 | 0.33 | 0.33 | 84 | 1011.9 |
| 20260506120548 | 6 | 40 | 0.0 | 1.6 | 0.30 | 0.33 | 0.33 | 87 | 1012.2 |
| 20260506120045 | 7 | 14 | 0.0 | 1.6 | 0.36 | 0.30 | 0.30 | 87 | 1012.1 |
| 20260506115543 | 7 | 27 | 0.0 | 0.0 | 0.18 | 0.28 | 0.28 | 87 | 1012.3 |
| 20260506115041 | 7 | 19 | 0.0 | 0.0 | 0.13 | 0.25 | 0.25 | 86 | 1012.3 |
| 20260506114538 | 6 | 16 | 0.0 | 1.6 | 0.30 | 0.25 | 0.25 | 86 | 1012.3 |
| 20260506114037 | 7 | 59 | 0.0 | 1.6 | 0.30 | 0.23 | 0.23 | 86 | 1012.4 |
| 20260506113534 | 7 | 23 | 1.6 | 3.2 | 0.13 | 0.20 | 0.20 | 85 | 1012.4 |
| 20260506113031 | 7 | 22 | 0.0 | 1.6 | 0.18 | 0.18 | 0.18 | 85 | 1012.4 |
| 20260506112528 | 7 | 21 | 0.0 | 1.6 | 0.30 | 0.18 | 0.18 | 84 | 1012.5 |
| 20260506112025 | 7 | 27 | 0.0 | 3.2 | 0.13 | 0.15 | 0.15 | 83 | 1012.4 |
| 20260506111523 | 7 | 87 | 3.2 | 4.8 | 0.18 | 0.13 | 0.13 | 83 | 1012.4 |
| 20260506111020 | 7 | 16 | 0.0 | 3.2 | 0.30 | 0.13 | 0.13 | 83 | 1012.4 |
| 20260506110518 | 7 | 358 | 0.0 | 1.6 | 0.13 | 0.10 | 0.10 | 84 | 1012.2 |
| 20260506110015 | 7 | 47 | 1.6 | 1.6 | 0.18 | 0.08 | 0.08 | 82 | 1012.4 |
| 20260506105511 | 7 | 25 | 0.0 | 1.6 | 0.18 | 0.08 | 0.08 | 81 | 1012.2 |
| 20260506105008 | 7 | 22 | 0.0 | 1.6 | 0.13 | 0.05 | 0.05 | 79 | 1012.2 |
| 20260506104506 | 8 | 89 | 1.6 | 1.6 | 0.13 | 0.05 | 0.05 | 79 | 1011.8 |
| 20260506104004 | 8 | 25 | 0.0 | 0.0 | 0.00 | 0.03 | 0.03 | 78 | 1011.9 |
| 20260506103501 | 8 | 40 | 0.0 | 1.6 | 0.18 | 0.03 | 0.03 | 78 | 1011.7 |
| 20260506102957 | 8 | 54 | 0.0 | 3.2 | 0.18 | 0.03 | 0.03 | 79 | 1011.7 |
| 20260506102456 | 8 | 37 | 1.6 | 3.2 | 0.00 | 0.00 | 0.00 | 79 | 1011.6 |
| 20260506101953 | 8 | 28 | 0.0 | 1.6 | 0.00 | 0.00 | 0.00 | 82 | 1011.3 |
| 20260506101449 | 8 | 23 | 0.0 | 1.6 | 0.00 | 0.00 | 0.00 | 83 | 1011.6 |
| 20260506100946 | 8 | 25 | 0.0 | 1.6 | 0.00 | 0.00 | 0.00 | 83 | 1011.4 |
| 20260506100445 | 8 | 25 | 0.0 | 1.6 | 0.00 | 0.00 | 0.00 | 82 | 1011.6 |
| 20260506095943 | 8 | 22 | 1.6 | 3.2 | 0.00 | 0.00 | 0.00 | 82 | 1011.6 |
| 20260506095441 | 8 | 18 | 0.0 | 1.6 | 0.00 | 0.00 | 0.00 | 81 | 1011.4 |
| 20260506094936 | 8 | 344 | 1.6 | 3.2 | 0.00 | 0.00 | 0.00 | 80 | 1011.7 |
| 20260506094435 | 8 | 46 | 1.6 | 3.2 | 0.00 | 0.00 | 0.00 | 77 | 1011.7 |
| 20260506093932 | 8 | 46 | 1.6 | 3.2 | 0.00 | 0.00 | 0.00 | 77 | 1011.6 |
| 20260506093430 | 8 | 19 | 0.0 | 0.0 | 0.00 | 0.00 | 0.00 | 76 | 1011.6 |
| 20260506092928 | 8 | 20 | 0.0 | 1.6 | 0.00 | 0.00 | 0.00 | 76 | 1011.4 |
| 20260506092426 | 8 | 327 | 1.6 | 6.4 | 0.00 | 0.00 | 0.00 | 76 | 1011.3 |
| 20260506091922 | 8 | 22 | 3.2 | 4.8 | 0.00 | 0.00 | 0.00 | 76 | 1011.3 |
| 20260506091420 | 8 | 33 | 3.2 | 4.8 | 0.00 | 0.00 | 0.00 | 76 | 1011.2 |
| 20260506090917 | 8 | 28 | 0.0 | 1.6 | 0.00 | 0.00 | 0.00 | 76 | 1011.2 |
| 20260506090415 | 8 | 357 | 0.0 | 1.6 | 0.00 | 0.00 | 0.00 | 76 | 1011.1 |
| 20260506085911 | 9 | 24 | 0.0 | 1.6 | 0.00 | 0.00 | 0.00 | 76 | 1011.1 |
| 20260506085408 | 9 | 6 | 0.0 | 1.6 | 0.00 | 0.00 | 0.00 | 76 | 1011.0 |
| 20260506084904 | 9 | 6 | 0.0 | 1.6 | 0.00 | 0.00 | 0.00 | 76 | 1010.9 |
| 20260506084401 | 9 | 23 | 0.0 | 1.6 | 0.00 | 0.00 | 0.00 | 76 | 1011.0 |
| 20260506083857 | 9 | 30 | 0.0 | 1.6 | 0.00 | 0.00 | 0.00 | 76 | 1011.2 |
| 20260506083355 | 9 | 36 | 0.0 | 3.2 | 0.00 | 0.00 | 0.00 | 76 | 1011.1 |
| 20260506082852 | 9 | 237 | 1.6 | 1.6 | 0.00 | 0.00 | 0.00 | 76 | 1011.4 |
| 20260506082349 | 9 | 49 | 3.2 | 4.8 | 0.00 | 0.00 | 0.00 | 76 | 1011.5 |
| 20260506081844 | 9 | 28 | 1.6 | 4.8 | 0.00 | 0.00 | 0.00 | 76 | 1011.3 |
| 20260506081343 | 9 | 3 | 1.6 | 3.2 | 0.00 | 0.00 | 0.00 | 75 | 1011.5 |
| 20260506080840 | 9 | 31 | 0.0 | 0.0 | 0.00 | 0.00 | 0.00 | 76 | 1011.2 |
| 20260506080337 | 9 | 30 | 0.0 | 1.6 | 0.00 | 0.00 | 0.00 | 76 | 1011.2 |
| 20260506073321 | 9 | 16 | 0.0 | 4.8 | 0.00 | 0.00 | 0.00 | 75 | 1011.2 |
| 20260506072818 | 9 | 11 | 0.0 | 3.2 | 0.00 | 0.00 | 0.00 | 75 | 1011.1 |
| 20260506072315 | 9 | 170 | 1.6 | 4.8 | 0.00 | 0.00 | 0.00 | 75 | 1011.1 |
| 20260506071813 | 9 | 19 | 1.6 | 9.7 | 0.00 | 0.00 | 0.00 | 75 | 1011.1 |
| 20260506071311 | 9 | 330 | 4.8 | 6.4 | 0.00 | 0.00 | 0.00 | 75 | 1011.2 |
| 20260506070808 | 9 | 110 | 1.6 | 9.7 | 0.00 | 0.00 | 0.00 | 75 | 1011.1 |
| 20260506070305 | 9 | 20 | 0.0 | 3.2 | 0.00 | 0.00 | 0.00 | 75 | 1011.1 |
| 20260506062241 | 10 | 30 | 0.0 | 6.4 | 0.00 | 0.00 | 0.00 | 76 | 1010.9 |
| 20260506061737 | 10 | 112 | 6.4 | 9.7 | 0.00 | 0.00 | 0.00 | 76 | 1010.5 |
| 20260506061235 | 10 | 39 | 1.6 | 6.4 | 0.00 | 0.00 | 0.00 | 76 | 1010.3 |
| 20260506060733 | 10 | 19 | 1.6 | 4.8 | 0.00 | 0.00 | 0.00 | 77 | 1010.5 |
| 20260506060230 | 10 | 62 | 4.8 | 6.4 | 0.00 | 0.00 | 0.00 | 77 | 1010.6 |
| 20260506051202 | 10 | 22 | 1.6 | 6.4 | 0.00 | 0.00 | 0.00 | 78 | 1010.6 |
| 20260506050700 | 10 | 24 | 1.6 | 4.8 | 0.00 | 0.00 | 0.00 | 78 | 1010.4 |
| 20260506050157 | 10 | 348 | 0.0 | 1.6 | 0.00 | 0.00 | 0.00 | 78 | 1010.2 |
| 20260506044648 | 11 | 1 | 1.6 | 3.2 | 0.00 | 0.00 | 0.00 | 78 | 1010.2 |
| 20260506044145 | 11 | 32 | 3.2 | 3.2 | 0.00 | 0.00 | 0.00 | 78 | 1010.2 |
| 20260506043642 | 11 | 3 | 1.6 | 4.8 | 0.00 | 0.00 | 0.00 | 78 | 1010.0 |
| 20260506043140 | 11 | 19 | 1.6 | 3.2 | 0.00 | 0.00 | 0.00 | 78 | 1009.8 |
| 20260506042639 | 11 | 13 | 1.6 | 4.8 | 0.00 | 0.00 | 0.00 | 78 | 1009.8 |
| 20260506042136 | 11 | 24 | 3.2 | 6.4 | 0.00 | 0.00 | 0.00 | 77 | 1009.6 |
| 20260506041635 | 11 | 15 | 3.2 | 6.4 | 0.00 | 0.00 | 0.00 | 77 | 1009.6 |
| 20260506041131 | 11 | 28 | 3.2 | 4.8 | 0.00 | 0.00 | 0.00 | 76 | 1009.8 |